Home   Weather   Boca Raton   Past weeks

Flag for USA Past Weather in Boca Raton, Florida, USA — Yesterday and Last 2 Weeks

Now
66 °F

Sunny.


Feels Like: 66 °F
Forecast: 60 / 76 °F
Wind: 14 mph from Northwest

Location: Boca Raton Airport

Current Time: Jan 24, 2017 at 10:29:23 am

Latest Report: Jan 24, 2017 at 9:50 am


Visibility: 10 mi

Pressure: 29.92 "Hg

Humidity: 68%

Dew Point: 55 °F

Location of Boca RatonLocation

Past Weather in Boca Raton — Graph

°F

Boca Raton Temperature Yesterday

Maximum temperature yesterday: 75 °F (at 12:53 pm)
Minimum temperature yesterday: 64 °F (at 10:47 pm)
Average temperature yesterday: 70 °F

High & Low Weather Summary for the Past Weeks

 TemperatureHumidityPressure
High84 °F (Jan 22, 2:47 pm)100% (Jan 14, 5:53 pm)30.51 "Hg (Jan 14, 5:53 pm)
Low59 °F (Jan 20, 6:51 am)21% (Jan 14, 2:47 pm)29.58 "Hg (Jan 23, 6:50 am)
Average73 °F66%30.15 "Hg
* Reported Jan 9 8:47 am — Jan 24 8:50 am, Boca Raton, Weather by CustomWeather, © 2017

Note: Actual official high and low records may vary slightly from our data, if they occured in-between our weather recording intervals... More about our weather records

Advertising

Boca Raton Weather History for the Previous 24 Hours

Scroll right to see more
 ConditionsComfort  
Time TempWeatherWind HumidityBarometerVisibility
8:50 am
Tue, Jan 24
64 °FSunny.8 mph78%29.90 "Hg10 mi
7:53 am61 °FSunny.7 mph88%29.88 "Hg10 mi
6:47 am61 °FClear.7 mph88%29.86 "Hg10 mi
10:47 pm
Mon, Jan 23
64 °FPassing clouds.14 mph83%29.75 "Hg10 mi
9:47 pm66 °FPassing clouds.16 mph78%29.72 "Hg10 mi
8:47 pm66 °FPassing clouds.17 mph78%29.70 "Hg10 mi
7:47 pm66 °FPassing clouds.16 mph78%29.68 "Hg10 mi
6:53 pm68 °FPassing clouds.16 mph69%29.65 "Hg10 mi
5:50 pm70 °FScattered clouds.17 mph69%29.63 "Hg10 mi
4:47 pm70 °FScattered clouds.21 mph64%29.61 "Hg10 mi
3:47 pm72 °FScattered clouds.23 mph61%29.59 "Hg10 mi
2:47 pm73 °FPartly sunny.23 mph57%29.58 "Hg10 mi
1:50 pm73 °FPartly sunny.18 mph57%29.59 "Hg10 mi
12:53 pm75 °FPartly sunny.24 mph50%29.59 "Hg10 mi
11:47 am73 °FPartly sunny.21 mph61%29.60 "Hg10 mi
10:53 am72 °FScattered clouds.24 mph69%29.63 "Hg10 mi
Weather by CustomWeather, © 2017

See weather overviewHow to use our weather pages